Location: Perogordo
(40.9285°N, 4.1493°W)
Time: 01:16:05
(UTC+00:00)

Daily predictions for brighter satellites

Satellite Brightness Start Highest point End
(mag) Time Altitude Azimuth Time Altitude Azimuth Time Altitude Azimuth
Milstar 3 Cent rocket 4.1 04:00:16 30° SSE 04:00:16 30° SSE 04:08:39 10° ESE
NOSS 3-2 (C) 4.3 04:00:07 65° NE 04:00:17 65° NE 04:08:48 10° SE
CENTAUR R/B 3.3 04:01:36 65° NNE 04:02:18 68° NE 04:11:08 10° SE
ATLAS 2AS CENTAUR R/B 3.3 04:15:30 43° S 04:18:07 64° ESE 04:25:55 10° NE
Atlas Centaur 2 3.8 04:26:40 28° S 04:26:48 28° S 04:31:46 10° ESE
NOSS 3-2 (A) 4.2 04:28:37 61° SSW 04:28:37 61° SSW 04:36:11 10° SSE
Lacrosse 5 2.9 04:32:03 41° ENE 04:32:03 41° ENE 04:35:23 10° NE
ATLAS CENTAUR R/B 4.2 04:32:06 11° NE 04:32:06 11° NE 04:32:54 10° NE
OAO 2 Rocket 4.5 04:37:06 36° SE 04:37:06 36° SE 04:40:51 10° ESE
ADEOS 4.4 04:31:13 10° NNE 04:36:18 49° E 04:41:20 10° S
Cosmos 2263 Rocket 3.5 04:43:11 29° N 04:43:11 29° N 04:46:00 10° NNE
SJ 16-02 3.3 04:45:52 21° NNE 04:45:52 21° NNE 04:47:26 10° NNE
USA 238 DEB 4.0 04:45:53 54° SW 04:45:53 54° SW 04:52:36 10° SSE
USA 238 4.0 04:45:56 55° SW 04:45:56 55° SW 04:52:41 10° SSE
FENGYUN 3A 3.5 04:55:48 10° NNE 05:01:15 85° WNW 05:06:38 10° SSW
COSMO-SKYMED 1 3.8 05:00:32 10° SE 05:04:36 41° ENE 05:07:59 14° N
Cosmos 1709 Rocket 3.9 04:58:34 10° SSW 05:04:54 69° W 05:11:17 10° N
Cosmos 2181 Rocket 4.1 04:59:35 10° N 05:05:48 75° E 05:11:55 10° SSE
Cosmos 1603 3.9 05:12:26 48° WSW 05:12:26 48° WSW 05:17:23 10° S
Meteor 2-3 Rocket 3.6 05:06:30 10° SSW 05:12:13 81° W 05:18:01 10° N
CZ-4C R/B 1.9 05:11:05 38° SSW 05:13:00 85° ESE 05:18:44 10° NE
Lacrosse 4 Rocket 1.3 05:14:32 80° WSW 05:14:32 80° WSW 05:18:57 10° SSE
Cosmos 1689 Rocket 3.9 05:15:07 10° SE 05:17:38 29° ENE 05:18:12 26° NE
Cosmos 1943 3.3 05:17:53 49° W 05:18:16 50° WSW 05:23:43 10° S
CZ-4B R/B 3.8 05:15:20 10° NNE 05:19:46 56° E 05:24:02 10° S
SAR-Lupe-4 4.0 05:17:53 10° SSE 05:21:23 59° ENE 05:22:38 36° N
ATLAS 3B R/B 3.2 05:17:51 19° NNW 05:23:00 61° NE 05:30:08 10° SE
Genesis I 3.1 05:24:54 48° SSW 05:25:53 82° ESE 05:29:44 10° NE
Cosmos 1461 4.1 05:28:42 30° SW 05:28:42 30° SW 05:31:45 10° S
Cosmos 990 Rocket 3.9 05:27:55 10° SSW 05:33:08 77° WNW 05:38:25 10° NNE
deb Chang Zheng 4 3.5 05:29:16 10° N 05:33:34 62° WNW 05:37:51 10° SSW
ALOS 3.5 05:29:23 10° N 05:31:45 26° NNW 05:31:45 26° NNW
Cosmos 2074 Rocket 4.1 05:28:43 10° S 05:34:54 80° E 05:41:08 10° N
CZ-4B R/B 3.6 05:32:25 10° S 05:33:01 14° SSW 05:33:01 14° SSW
Cosmos 923 Rocket 4.0 05:34:01 26° NNW 05:36:56 64° WSW 05:42:10 10° S
SAR-Lupe-1 3.9 05:34:49 10° SSE 05:38:23 86° WSW 05:40:08 29° NNW
BREEZE M DEB (TANK) 3.7 05:27:51 10° SW 05:39:49 65° SSE 05:43:16 10° ENE
Cosmos 405 Rocket 3.6 05:37:26 10° S 05:40:59 47° E 05:44:35 10° NNE
METEOR-M 4.3 05:36:09 10° N 05:41:15 47° WNW 05:46:20 10° SW
EO 1 Delta rocket 4.4 05:40:36 10° SSE 05:45:42 62° ENE 05:50:18 10° N
Cosmos 1812 3.7 05:44:44 10° N 05:48:28 48° E 05:52:11 10° SSE
NOSS 3-4 (A) 4.2 05:48:19 26° WNW 05:49:57 30° NW 05:55:27 10° NNE
NOSS 3-4 (C) 4.2 05:48:24 26° WNW 05:50:04 30° NW 05:55:36 10° NNE
Cosmos 2228 Rocket 3.8 05:46:42 10° N 05:51:02 55° E 05:55:19 10° SSE
PSLV R/B 3.8 05:47:04 10° S 05:51:13 82° WSW 05:55:21 10° NNW
SL-4 R/B 3.8 05:50:37 16° NNW 05:51:21 16° N 05:53:49 10° NE
Cosmos 1515 Rocket 3.5 05:47:10 10° NNW 05:51:36 67° W 05:56:01 10° S
Cosmos 2184 Rocket 3.9 05:46:06 10° S 05:52:24 78° W 05:58:48 10° N
GPS 2-04 Rocket1 3.7 05:50:40 23° SW 05:52:29 36° S 05:56:01 10° ESE
SKYMED 2 3.6 05:48:21 10° S 05:52:37 57° W 05:56:36 12° NNW
CENTAUR R/B 3.9 05:48:50 23° WNW 05:52:46 33° WSW 06:00:20 10° S
Cosmos 158 Rocket 4.2 05:50:30 24° NW 05:53:01 44° WSW 05:57:44 10° S
USA-17 4.4 05:49:32 13° SW 05:53:02 63° NW 05:56:13 10° NNE
Cosmos 1151 Rocket 3.8 05:53:56 29° W 05:54:12 29° W 05:57:54 10° SSW
Cosmos 1782 3.1 05:52:15 22° NNW 05:54:29 45° W 05:58:19 10° SSW
ERS-2 3.3 05:51:26 10° SSW 05:53:52 25° WSW 05:53:52 25° WSW
FALCON 9 DEB 4.3 05:56:58 23° NNW 05:56:58 23° NNW 05:59:31 10° NNE
Cosmos 1844 Rocket 2.6 05:53:05 10° SSW 05:58:42 68° WNW 06:04:22 10° NNE
SJ-12 4.4 05:56:47 10° N 06:00:33 37° WNW 06:04:17 10° SW
USA 234 3.8 05:54:29 10° NE 06:00:58 62° SE 06:07:25 10° SSW
Cosmos 1680 Rocket 3.8 06:00:25 14° NNW 06:04:49 47° WSW 06:09:52 10° S
COSMOS 2455 3.2 06:00:48 10° SSW 06:06:47 71° ESE 06:12:48 10° NNE
RESURS DK-1 2.9 06:03:25 10° SW 06:07:14 35° WNW 06:11:06 10° N
BREEZE-M (TANK) 4.3 05:57:45 10° SW 06:08:28 49° SSE 06:11:43 10° ENE
ATLAS 2AS CENTAUR R/B 3.6 06:03:04 13° WSW 06:09:35 36° NW 06:16:44 10° NNE
BREEZE-M DEB 3.7 06:02:56 16° WNW 06:11:05 74° NNE 06:14:19 10° ESE
ATLAS CENTAUR R/B 1.1 06:08:18 15° NNW 06:11:23 90° W 06:15:23 10° SSE
Meteor PRIRODA 4.2 06:08:28 10° N 06:11:55 37° WNW 06:15:22 10° SW
Cosmos 1500 Rocket 3.6 06:08:00 10° SSW 06:12:12 52° W 06:16:26 10° N
Cosmos 1844 3.6 06:07:07 10° SW 06:12:37 65° WNW 06:18:11 10° NNE
Lacrosse 5 3.0 06:11:18 18° WNW 06:13:43 26° NNW 06:17:58 10° NNE
NOAA 6 4.3 06:08:42 10° NNE 06:13:49 71° ESE 06:18:55 10° S
Atlas Centaur 2 3.6 06:09:58 10° WSW 06:15:18 28° S 06:19:42 10° SE
Cosmos 372 Rocket 4.0 06:11:10 10° SSW 06:16:15 82° ESE 06:21:22 10° NNE
H-2A R/B 2.8 06:12:29 10° N 06:16:20 57° WNW 06:20:07 10° SSW
Cosmos 1437 Rocket 3.0 06:14:50 10° N 06:18:36 66° E 06:22:20 10° SSE
CZ-4B DEB 4.3 06:13:32 10° NNE 06:19:01 82° ESE 06:24:31 10° SSW
OAO 2 Rocket 4.3 06:16:04 11° WSW 06:20:28 39° S 06:25:14 10° ESE
Meteor 2-6 Rocket 4.2 06:16:15 10° NNW 06:21:32 58° W 06:26:52 10° S
SJ 16-02 3.3 06:22:56 12° NW 06:22:56 12° NW 06:23:58 10° NNW
Okean O Rocket 2.9 06:18:11 10° NNE 06:22:29 45° E 06:26:44 10° S
Cosmos 2263 Rocket 4.0 06:24:56 11° NW 06:25:28 11° NW 06:27:02 10° NNW
PAYLOAD B 4.4 06:19:57 10° NNE 06:25:29 77° ESE 06:30:58 10° S
SMAP 3.8 06:21:37 10° NNE 06:26:13 59° E 06:30:48 10° S
Gbstr 26 Del rocket 2.8 06:26:06 14° WNW 06:29:13 63° SW 06:33:17 10° SE
ATLAS 5 CENTAUR R/B 2.6 06:25:32 10° SSW 06:29:20 46° ESE 06:33:30 10° NE
Cosmos 1898 Rocket 4.4 06:28:14 10° WSW 06:32:43 27° WNW 06:37:16 10° N
Sich 1 3.1 06:28:27 10° S 06:32:53 87° W 06:37:21 10° N
CZ-2C R/B 3.4 06:29:12 10° SSE 06:34:33 57° ENE 06:39:51 10° N
Cosmos 1743 Rocket 4.4 06:32:25 10° SW 06:36:17 29° WNW 06:40:12 10° NNW
Nadezhda 3 Rocket 4.1 06:30:18 10° NNW 06:36:30 62° W 06:42:36 10° S
AQUARIUS 4.5 06:35:27 10° NNE 06:39:57 73° E 06:44:25 10° S
H-2A R/B 2.3 06:36:35 10° N 06:40:22 59° WNW 06:44:07 10° SSW
Envisat 3.0 06:35:36 10° N 06:40:35 59° WNW 06:45:35 10° SSW
COSMO-SKYMED 1 4.1 06:38:04 10° SW 06:40:56 17° W 06:43:48 10° NW
Cosmos 2082 Rocket 4.1 06:44:13 10° N 06:48:55 26° NE 06:53:38 10° ESE
Cosmos 1937 Rocket 4.4 06:45:26 10° WSW 06:49:43 26° WNW 06:54:03 10° N
CZ-4B R/B 3.3 06:44:57 10° NNE 06:50:21 89° ESE 06:55:48 10° SSW
